GW2061 Weather Reports


Display with metric or nautical units.
time (UTC)temp
F
wind
direction
speed
MPH
gust
MPH
rain 1hr
in
rain 24hr
in
rain mn
in
humidity
%
barometer
mb
20260506204718 59 118 5.0 8.0 0.00 0.38 0.38 80 1012.5
20260506204215 59 152 5.0 8.0 0.00 0.38 0.38 79 1012.3
20260506203713 59 178 4.0 7.0 0.00 0.38 0.38 79 1012.5
20260506203210 59 197 6.0 11.0 0.00 0.38 0.38 80 1012.4
20260506202708 60 148 3.0 5.0 0.00 0.38 0.38 80 1012.4
20260506202203 60 119 6.0 11.0 0.00 0.38 0.38 80 1012.6
20260506201701 59 177 7.0 13.0 0.00 0.38 0.38 80 1012.4
20260506201156 59 191 3.0 3.0 0.00 0.38 0.38 79 1012.4
20260506200654 59 155 6.0 9.0 0.00 0.38 0.38 80 1012.5
20260506200150 59 121 9.0 11.0 0.00 0.38 0.38 80 1012.3
20260506195647 60 188 4.0 7.0 0.00 0.38 0.38 80 1012.2
20260506195143 60 135 9.0 14.0 0.00 0.38 0.38 81 1012.2
20260506194641 60 185 9.0 13.0 0.00 0.38 0.38 81 1012.1
20260506194137 60 149 3.0 6.0 0.00 0.38 0.38 81 1012.1
20260506193635 60 113 5.0 8.0 0.00 0.38 0.38 82 1012.3
20260506193132 60 205 6.0 9.0 0.00 0.38 0.38 82 1012.1
20260506192628 60 175 6.0 9.0 0.00 0.38 0.38 83 1012.1
20260506192124 60 241 7.0 10.0 0.00 0.38 0.38 83 1012.1
20260506191621 60 144 5.0 8.0 0.00 0.38 0.38 83 1012.2
20260506191117 60 164 6.0 8.0 0.00 0.38 0.38 84 1012.2
20260506190615 60 156 4.0 7.0 0.00 0.38 0.38 84 1012.2
20260506190111 60 130 4.0 5.0 0.00 0.38 0.38 83 1011.9
20260506185609 60 221 6.0 9.0 0.00 0.38 0.38 84 1011.9
20260506185105 60 118 7.0 10.0 0.00 0.38 0.38 84 1011.8
20260506184602 60 153 5.0 7.0 0.00 0.38 0.38 84 1011.7
20260506184100 60 156 7.0 13.0 0.00 0.38 0.38 84 1011.6
20260506183556 60 152 9.0 11.0 0.00 0.38 0.38 85 1011.8
20260506183052 60 157 10.0 14.0 0.00 0.38 0.38 85 1011.6
20260506182550 60 167 7.0 10.0 0.00 0.38 0.38 86 1011.3
20260506182047 60 192 6.0 9.0 0.00 0.38 0.38 86 1011.7
20260506181545 60 191 3.0 7.0 0.00 0.38 0.38 86 1011.4
20260506181041 60 196 7.0 9.0 0.00 0.38 0.38 87 1011.2
20260506180538 60 134 3.0 5.0 0.00 0.38 0.38 87 1011.3
20260506180035 60 162 6.0 8.0 0.00 0.38 0.38 88 1011.3
20260506175531 60 257 7.0 13.0 0.00 0.38 0.38 87 1011.3
20260506175027 60 131 10.0 14.0 0.00 0.38 0.38 87 1011.7
20260506174526 60 173 3.0 5.0 0.00 0.38 0.38 88 1011.3
20260506174022 60 155 7.0 10.0 0.00 0.38 0.38 88 1011.3
20260506173520 60 143 7.0 13.0 0.00 0.38 0.38 88 1011.7
20260506173017 60 150 9.0 13.0 0.00 0.38 0.38 88 1011.8
20260506172514 60 189 4.0 7.0 0.00 0.38 0.38 89 1011.4
20260506172010 60 136 4.0 5.0 0.00 0.38 0.38 89 1011.4
20260506171508 60 144 5.0 8.0 0.00 0.38 0.38 90 1011.8
20260506171005 60 186 6.0 8.0 0.00 0.38 0.38 90 1011.4
20260506170501 60 130 4.0 7.0 0.00 0.38 0.38 90 1011.4
20260506165954 60 148 5.0 9.0 0.00 0.38 0.38 90 1011.6
20260506165452 60 191 4.0 7.0 0.00 0.38 0.38 90 1011.6
20260506164942 60 150 6.0 8.0 0.00 0.38 0.38 90 1011.7
20260506164439 60 213 5.0 7.0 0.00 0.38 0.38 90 1011.7
20260506163937 60 159 3.0 6.0 0.00 0.38 0.38 90 1011.6
20260506163432 60 118 2.0 2.0 0.00 0.38 0.38 90 1011.7
20260506162927 60 184 5.0 7.0 0.00 0.38 0.38 90 1011.6
20260506162424 60 163 5.0 8.0 0.00 0.38 0.38 90 1011.7
20260506161921 60 161 3.0 6.0 0.00 0.38 0.38 90 1011.7
20260506161419 60 221 2.0 2.0 0.00 0.38 0.38 90 1011.7
20260506160911 61 213 2.0 2.0 0.00 0.38 0.38 90 1011.9
20260506160408 61 157 4.0 7.0 0.00 0.38 0.38 89 1011.7
20260506155906 61 168 3.0 7.0 0.00 0.38 0.38 89 1011.7
20260506155403 61 155 6.0 9.0 0.00 0.38 0.38 89 1011.7
20260506153525 61 175 2.0 3.0 0.00 0.38 0.38 88 1011.8
20260506153023 61 126 4.0 6.0 0.00 0.38 0.38 88 1011.7
20260506152519 61 177 3.0 7.0 0.00 0.38 0.38 89 1011.8
20260506152018 61 155 5.0 7.0 0.00 0.38 0.38 89 1011.9
20260506151515 61 151 4.0 6.0 0.00 0.38 0.38 89 1012.0
20260506151012 61 196 3.0 3.0 0.00 0.38 0.38 89 1011.9
20260506150508 61 180 3.0 7.0 0.00 0.38 0.38 89 1012.2
20260506150005 61 139 7.0 14.0 0.00 0.38 0.38 89 1012.0
20260506145502 61 151 4.0 8.0 0.00 0.38 0.38 89 1011.9
20260506144959 61 145 4.0 7.0 0.00 0.38 0.38 89 1012.0
20260506144456 61 166 2.0 2.0 0.00 0.38 0.38 90 1012.1
20260506143954 61 167 5.0 8.0 0.00 0.38 0.38 90 1012.2
20260506143451 61 160 4.0 6.0 0.00 0.38 0.38 91 1012.0
20260506142949 61 168 2.0 7.0 0.00 0.38 0.38 91 1012.0
20260506142447 61 189 5.0 9.0 0.00 0.38 0.38 91 1012.2
20260506141944 61 198 3.0 5.0 0.00 0.38 0.38 92 1012.2
20260506141442 60 177 4.0 5.0 0.00 0.38 0.38 92 1012.3
20260506140941 61 152 3.0 6.0 0.00 0.38 0.38 92 1012.3
20260506140437 61 192 4.0 7.0 0.00 0.38 0.38 93 1012.3
20260506135934 61 192 3.0 6.0 0.00 0.38 0.38 94 1012.3
20260506135431 60 200 1.0 1.0 0.00 0.38 0.38 94 1012.7
20260506134927 60 129 2.0 5.0 0.00 0.38 0.38 94 1012.4
20260506134423 60 172 2.0 2.0 0.00 0.38 0.38 94 1012.6
20260506133920 60 151 2.0 3.0 0.00 0.38 0.38 94 1012.5
20260506133418 60 186 1.0 2.0 0.00 0.38 0.38 94 1012.7
20260506132914 59 188 3.0 5.0 0.00 0.38 0.38 94 1012.7
20260506132411 59 129 3.0 5.0 0.00 0.38 0.38 94 1012.7
20260506131909 60 161 2.0 3.0 0.00 0.38 0.38 94 1012.8
20260506131405 60 129 1.0 5.0 0.00 0.38 0.38 94 1013.0
20260506130902 60 165 3.0 6.0 0.00 0.38 0.38 95 1012.9
20260506130358 60 186 4.0 8.0 0.00 0.38 0.38 95 1012.7
20260506125857 60 133 6.0 7.0 0.00 0.38 0.38 95 1012.7
20260506125355 60 124 2.0 3.0 0.00 0.38 0.38 95 1012.7
20260506124853 60 157 1.0 1.0 0.00 0.38 0.38 95 1012.7
20260506124349 59 109 3.0 5.0 0.00 0.38 0.38 95 1012.8
20260506123847 59 155 7.0 9.0 0.00 0.38 0.38 95 1013.1
20260506123345 59 203 3.0 5.0 0.00 0.38 0.38 95 1012.7
20260506122842 59 149 2.0 2.0 0.00 0.38 0.38 95 1013.0
20260506122339 59 167 1.0 2.0 0.00 0.38 0.38 95 1013.0
20260506121837 59 191 1.0 3.0 0.00 0.38 0.38 95 1012.8
20260506121334 59 191 2.0 3.0 0.00 0.38 0.38 95 1012.8
20260506120831 59 162 4.0 7.0 0.00 0.38 0.38 95 1013.1
20260506120329 59 172 2.0 2.0 0.00 0.38 0.38 95 1013.0
20260506115826 58 185 2.0 3.0 0.00 0.38 0.38 95 1013.0
20260506115324 58 144 0.0 0.0 0.00 0.38 0.38 94 1013.0
20260506114822 58 219 0.0 1.0 0.00 0.38 0.38 94 1013.0
20260506114319 58 169 2.0 3.0 0.00 0.38 0.38 94 1013.0
20260506113818 58 178 0.0 0.0 0.00 0.38 0.38 94 1012.9
20260506113315 58 194 3.0 5.0 0.00 0.38 0.38 94 1012.9
20260506112811 57 162 3.0 5.0 0.00 0.38 0.38 94 1013.0
20260506112309 57 179 1.0 2.0 0.00 0.38 0.38 94 1013.0
20260506111806 57 159 1.0 2.0 0.00 0.38 0.38 94 1013.2
20260506111304 57 180 0.0 0.0 0.00 0.38 0.38 94 1013.2
20260506110801 56 182 0.0 0.0 0.00 0.38 0.38 94 1013.1
20260506110258 56 175 0.0 0.0 0.00 0.38 0.38 94 1013.0
20260506105755 56 174 0.0 0.0 0.00 0.38 0.38 93 1013.2
20260506105252 56 174 0.0 0.0 0.00 0.38 0.38 93 1013.3
20260506104749 56 174 0.0 0.0 0.00 0.38 0.38 93 1013.2
20260506104247 57 192 0.0 0.0 0.00 0.38 0.38 93 1013.3
20260506103744 56 177 0.0 0.0 0.00 0.38 0.38 93 1013.6
20260506103242 56 183 1.0 1.0 0.00 0.38 0.38 93 1013.3
20260506102739 56 157 0.0 0.0 0.00 0.38 0.38 93 1013.6
20260506102237 56 152 3.0 3.0 0.00 0.38 0.38 93 1013.6
20260506101734 56 190 2.0 3.0 0.00 0.38 0.38 93 1013.6
20260506101230 56 158 3.0 5.0 0.00 0.38 0.38 93 1013.5
20260506100728 56 159 2.0 3.0 0.00 0.38 0.38 93 1013.4
20260506100226 56 160 2.0 3.0 0.07 0.38 0.38 94 1013.3
20260506095724 56 195 1.0 1.0 0.07 0.38 0.38 94 1013.4
20260506095220 56 242 3.0 6.0 0.05 0.37 0.37 94 1013.6
20260506094718 56 175 1.0 2.0 0.05 0.37 0.37 94 1013.5
20260506094216 56 182 0.0 1.0 0.00 0.36 0.36 94 1013.4
20260506093714 55 170 1.0 1.0 0.07 0.36 0.36 94 1013.6
20260506093211 55 174 1.0 1.0 0.07 0.36 0.36 93 1013.8
20260506092709 55 171 1.0 1.0 0.07 0.36 0.36 94 1013.6
20260506092206 55 191 3.0 6.0 0.05 0.35 0.35 93 1013.7
20260506091704 55 227 2.0 3.0 0.05 0.35 0.35 93 1013.6
20260506091201 55 169 1.0 2.0 0.14 0.34 0.34 93 1013.7
20260506090658 56 174 1.0 1.0 0.19 0.34 0.34 93 1013.7
20260506090155 56 194 2.0 2.0 0.12 0.32 0.32 93 1013.6
20260506085652 56 177 1.0 2.0 0.12 0.31 0.31 93 1013.8
20260506085148 56 179 2.0 3.0 0.17 0.30 0.30 93 1013.7
20260506084645 55 164 1.0 1.0 0.12 0.29 0.29 92 1013.8
20260506084141 55 165 0.0 0.0 0.12 0.27 0.27 92 1013.9
20260506083638 55 176 2.0 3.0 0.12 0.26 0.26 92 1013.6
20260506083136 55 145 2.0 3.0 0.12 0.25 0.25 91 1013.7
20260506082633 55 177 3.0 3.0 0.12 0.24 0.24 91 1014.0
20260506082128 55 161 3.0 5.0 0.19 0.23 0.23 90 1013.6
20260506081627 55 163 2.0 3.0 0.19 0.22 0.22 90 1013.8
20260506081124 55 145 5.0 8.0 0.19 0.20 0.20 90 1013.6
20260506080622 55 166 1.0 2.0 0.24 0.19 0.19 90 1013.6
20260506080118 55 144 2.0 3.0 0.17 0.17 0.17 89 1013.9
20260506073102 56 168 0.0 0.0 0.12 0.09 0.09 88 1013.8
20260506072558 56 168 0.0 0.0 0.00 0.07 0.07 87 1013.7
20260506072057 56 196 1.0 3.0 0.07 0.07 0.07 86 1013.4
20260506071554 56 130 2.0 3.0 0.07 0.07 0.07 86 1013.1
20260506071051 56 184 3.0 6.0 0.00 0.06 0.06 87 1013.4
20260506070548 56 148 1.0 1.0 0.00 0.06 0.06 86 1013.2
20260506062023 58 138 4.0 7.0 0.00 0.00 0.00 80 1013.5
20260506061518 58 207 2.0 3.0 0.00 0.00 0.00 81 1013.5
20260506061016 58 185 4.0 7.0 0.00 0.00 0.00 81 1013.1
20260506060515 58 163 2.0 3.0 0.00 0.00 0.00 81 1013.2
20260506050943 59 142 1.0 2.0 0.00 0.00 0.00 76 1013.0
20260506050441 59 174 3.0 5.0 0.00 0.00 0.00 78 1013.1
20260506044931 58 163 2.0 6.0 0.00 0.00 0.00 80 1013.0
20260506044430 58 200 3.0 5.0 0.00 0.00 0.00 81 1012.9
20260506043926 58 120 1.0 2.0 0.00 0.00 0.00 82 1013.1
20260506043423 58 153 3.0 6.0 0.00 0.00 0.00 82 1013.0
20260506042921 58 115 3.0 5.0 0.00 0.00 0.00 82 1013.0
20260506042420 58 160 3.0 5.0 0.00 0.00 0.00 83 1013.1
20260506041918 58 171 1.0 2.0 0.00 0.00 0.00 83 1013.2
20260506041415 58 152 1.0 2.0 0.00 0.00 0.00 83 1013.0
20260506040912 58 216 2.0 2.0 0.00 0.00 0.00 84 1012.7
20260506040410 58 122 2.0 5.0 0.00 0.00 0.00 83 1012.6
20260506035905 58 174 3.0 5.0 0.00 0.00 0.00 83 1012.7
20260506035403 58 146 4.0 7.0 0.00 0.00 0.00 84 1012.5
20260506034900 59 204 4.0 5.0 0.00 0.00 0.00 84 1012.8
20260506034358 58 150 3.0 5.0 0.00 0.00 0.00 85 1012.8
20260506033854 58 145 4.0 6.0 0.00 0.00 0.00 85 1012.8
20260506033351 58 174 4.0 7.0 0.00 0.00 0.00 86 1012.9
20260506032848 58 178 6.0 10.0 0.00 0.00 0.00 86 1012.8
20260506032345 58 207 3.0 5.0 0.00 0.00 0.00 86 1012.6
20260506031842 58 129 4.0 6.0 0.00 0.00 0.00 86 1012.9
20260506031339 59 201 5.0 7.0 0.00 0.00 0.00 86 1012.9
20260506030837 59 139 3.0 6.0 0.00 0.00 0.00 86 1013.1
20260506030335 59 170 3.0 3.0 0.00 0.00 0.00 86 1013.1
20260506025831 59 169 5.0 7.0 0.00 0.00 0.00 86 1013.2
20260506025327 59 139 5.0 8.0 0.00 0.00 0.00 86 1013.2
20260506024825 59 135 2.0 5.0 0.00 0.00 0.00 86 1013.3
20260506024321 59 179 0.0 1.0 0.00 0.00 0.00 86 1013.3
20260506023818 59 127 3.0 3.0 0.00 0.00 0.00 85 1013.4
20260506023315 59 177 2.0 3.0 0.00 0.00 0.00 85 1013.4
20260506022811 59 182 2.0 3.0 0.00 0.00 0.00 85 1013.4
20260506022309 59 176 1.0 2.0 0.00 0.00 0.00 85 1013.5
20260506021807 59 177 4.0 6.0 0.00 0.00 0.00 84 1013.6
20260506021304 59 141 1.0 2.0 0.00 0.00 0.00 84 1013.7
20260506020800 59 161 2.0 3.0 0.00 0.00 0.00 84 1013.7
20260506020258 59 137 5.0 6.0 0.00 0.00 0.00 84 1013.6
20260506015756 59 157 5.0 7.0 0.00 0.00 0.00 84 1013.5
20260506015253 59 180 1.0 2.0 0.00 0.00 0.00 84 1013.6
20260506014749 59 181 3.0 3.0 0.00 0.00 0.00 84 1013.5
20260506014246 59 162 1.0 2.0 0.00 0.00 0.00 84 1013.5
20260506013743 59 191 2.0 3.0 0.00 0.00 0.00 84 1013.6
20260506013240 59 162 2.0 5.0 0.00 0.00 0.00 84 1013.7
20260506012737 59 166 2.0 3.0 0.00 0.00 0.00 84 1013.8
20260506012234 59 153 3.0 5.0 0.00 0.00 0.00 84 1013.6
20260506011731 59 153 4.0 6.0 0.00 0.00 0.00 83 1013.5
20260506011227 59 139 4.0 5.0 0.00 0.00 0.00 83 1013.5
20260506010726 59 189 3.0 5.0 0.00 0.00 0.00 83 1013.5
20260506010223 59 190 4.0 6.0 0.00 0.00 0.00 83 1013.4
20260506005720 59 115 3.0 6.0 0.00 0.00 0.00 83 1013.4
20260506005216 59 205 3.0 6.0 0.00 0.00 0.00 83 1013.3
20260506004712 59 194 2.0 5.0 0.00 0.00 0.00 83 1013.6
20260506004210 59 155 1.0 1.0 0.00 0.00 0.00 83 1013.6
20260506003706 59 134 4.0 8.0 0.00 0.00 0.00 83 1013.4
20260506003203 59 175 3.0 6.0 0.00 0.00 0.00 83 1013.4
20260506002658 59 155 3.0 6.0 0.00 0.00 0.00 83 1013.6
20260506002155 59 179 5.0 6.0 0.00 0.00 0.00 83 1013.5
20260506001650 59 198 3.0 5.0 0.00 0.00 0.00 82 1013.6
20260506001148 59 176 1.0 2.0 0.00 0.00 0.00 82 1013.7
20260506000645 59 128 1.0 2.0 0.00 0.00 0.00 81 1013.6
20260506000143 59 170 1.0 2.0 0.00 0.00 0.00 80 1013.8
20260505235640 60 193 1.0 2.0 0.00 0.00 0.00 79 1013.8
20260505235138 60 181 1.0 2.0 0.00 0.00 0.00 78 1013.9
20260505234634 60 151 1.0 1.0 0.00 0.00 0.00 77 1014.1
20260505234131 60 177 1.0 2.0 0.00 0.00 0.00 77 1014.3
20260505233628 60 172 0.0 1.0 0.00 0.00 0.00 77 1014.2
20260505233126 60 178 1.0 1.0 0.00 0.00 0.00 77 1014.4
20260505232623 60 162 4.0 6.0 0.00 0.00 0.00 77 1014.4
20260505232121 60 161 2.0 2.0 0.00 0.00 0.00 76 1014.5
20260505231617 60 181 2.0 3.0 0.00 0.00 0.00 76 1014.4
20260505231116 60 139 3.0 3.0 0.00 0.00 0.00 76 1014.4
20260505230614 60 153 2.0 2.0 0.00 0.00 0.00 76 1014.4
20260505230110 60 142 3.0 6.0 0.00 0.00 0.00 76 1014.5
20260505225606 60 184 0.0 0.0 0.00 0.00 0.00 76 1014.6
20260505225102 60 194 0.0 1.0 0.00 0.00 0.00 75 1014.5
20260505224559 60 99 1.0 1.0 0.00 0.00 0.00 75 1014.4
20260505224057 60 110 1.0 5.0 0.00 0.00 0.00 73 1014.8
20260505223554 60 181 0.0 0.0 0.00 0.00 0.00 73 1014.3
20260505223050 60 118 2.0 3.0 0.00 0.00 0.00 72 1014.4
20260505222547 60 140 3.0 5.0 0.00 0.00 0.00 72 1014.4
20260505222043 60 144 5.0 6.0 0.00 0.00 0.00 72 1014.4
20260505221540 60 172 1.0 2.0 0.00 0.00 0.00 72 1014.4
20260505221036 60 201 1.0 5.0 0.00 0.00 0.00 72 1014.6
20260505220534 60 176 4.0 9.0 0.00 0.00 0.00 72 1014.6
20260505220032 60 179 3.0 5.0 0.00 0.02 0.02 73 1014.3
20260505215530 60 167 4.0 7.0 0.00 0.02 0.02 74 1014.6
20260505215027 59 180 0.0 0.0 0.00 0.02 0.02 74 1014.5
20260505214525 59 179 0.0 0.0 0.00 0.02 0.02 75 1014.6
20260505214021 59 175 2.0 3.0 0.00 0.02 0.02 75 1015.0
20260505213519 59 165 2.0 3.0 0.00 0.02 0.02 75 1014.9
20260505213015 59 151 3.0 5.0 0.00 0.02 0.02 75 1015.1
20260505212512 59 146 1.0 1.0 0.00 0.02 0.02 75 1015.0
20260505212009 59 159 0.0 1.0 0.00 0.02 0.02 76 1015.0
20260505211506 59 174 4.0 6.0 0.00 0.02 0.02 75 1015.0
20260505211003 59 171 1.0 1.0 0.00 0.02 0.02 75 1015.3
20260505210459 59 123 3.0 5.0 0.00 0.02 0.02 75 1014.9
20260505205956 60 182 3.0 3.0 0.00 0.02 0.02 74 1014.9
20260505205455 60 159 3.0 5.0 0.00 0.02 0.02 73 1014.9
20260505204951 60 195 2.0 3.0 0.00 0.02 0.02 72 1014.8